[[{"header":{"parameterUnit":"m.s-1","parameterCategory":1,"la1":30.2991,"la2":30.254,"lo1":-89.0895,"lo2":-89.0444,"dy":0.0017,"dx":0.0017,"nx":28,"ny":28,"refTime":"2025-12-19T03:00:00:Z","depth":0,"parameterNumber":2,"parameterNumberName":"U-component_of_WINDS"},"data":[0,0,0,0,0,0,0,0,0,0,0,0,0,0,0,0,0,0,0,0,0,0,0,0,0,0,0,0,0,0,0,0,0,0,0,0,0,0,0,0,0,0,0,0,0,0,0,0,0,0,0,0,0,0,0,0,0,0,2.7345,2.7346,0,2.745,2.7451,2.7452,2.7454,2.7453,2.7452,2.745,2.756,2.7564,2.7568,0,0,0,0,0,0,0,0,0,0,0,0,0,2.7149,2.7152,2.7344,2.7346,2.7347,2.7449,2.7451,2.7452,2.7454,2.7453,2.7451,2.745,2.7558,2.7563,2.7568,0,0,0,0,0,0,0,0,0,0,0,0,0,2.7242,2.7154,2.7344,2.736,2.7363,2.7449,2.7451,2.7453,2.7455,2.7453,2.7451,2.7449,2.7557,2.7563,2.7569,2.7646,0,0,2.7588,2.759,0,0,0,0,0,0,0,0,2.7237,2.7249,2.7357,2.7359,2.7362,2.7437,2.7422,2.7518,2.7455,2.742,2.745,2.7448,2.752,2.7529,2.7553,2.7651,2.7656,2.7588,2.7592,2.7595,2.7596,0,0,0,0,0,0,0,2.723,2.7245,2.7386,2.7358,2.7362,2.7364,2.7375,2.744,2.748,2.7423,2.7423,2.7436,2.7522,2.7548,2.7556,2.7658,2.7588,2.7593,2.7597,2.76,2.7828,2.783,0,0,0,0,0,0,2.722,2.7239,2.7383,2.7389,2.7293,2.7369,2.7381,2.7415,2.7479,2.7487,2.7437,2.7435,2.7538,2.7549,2.756,2.7657,2.7595,2.76,2.7604,2.7826,2.7829,2.7831,0,0,0,0,0,0,2.7216,2.7233,2.7378,2.7314,2.7333,2.7374,2.7412,2.7418,2.7444,2.749,2.7497,2.7456,2.7537,2.7551,2.7625,2.7661,2.7603,2.7609,2.7823,2.7827,2.783,2.785,0,0,0,0,0,0,2.721,2.7231,2.726,2.7315,2.7336,2.7441,2.7414,2.7421,2.7454,2.7453,2.751,2.7517,2.7536,2.7616,2.7632,2.7668,2.7614,2.782,2.7825,2.7829,2.7847,2.7854,2.7861,0,0,0,0,0,2.7203,2.7261,2.7262,2.7279,2.7373,2.7443,2.7455,2.7476,2.7457,2.7487,2.7518,2.7516,2.7654,2.7624,2.7641,2.768,2.7818,2.7823,2.7828,2.7844,2.7853,2.786,0,0,0,0,0,0,2.721,2.7269,2.727,2.7347,2.739,2.7443,2.7482,2.7484,2.7534,2.753,2.7554,2.7567,2.7641,2.7668,2.7633,2.776,2.7734,2.7743,2.774,2.7749,2.7756,2.7748,2.7619,0,0,0,0,0,2.722,2.7271,2.732,2.7384,2.7406,2.744,2.7471,2.7483,2.7529,2.7547,2.7583,2.7628,2.7682,2.7717,2.7769,2.7851,2.7865,2.7887,2.7893,2.7899,2.7906,2.7955,2.7966,2.7848,2.7848,2.7848,0,0,2.7242,2.7281,2.7311,2.7386,2.7421,2.7475,2.7455,2.7512,2.7553,2.7556,2.7628,2.7656,2.7708,2.7788,2.7824,2.7812,2.7942,2.7906,2.791,2.7914,2.7961,2.7972,2.7982,2.7852,2.7851,2.7851,0,0,2.7309,2.7343,2.7401,2.7437,2.749,2.7513,2.7527,2.758,2.7599,2.7672,2.7677,2.7726,2.7818,2.7856,2.7887,2.7972,2.7973,2.7988,2.8024,2.8071,2.808,2.8089,2.8121,2.8132,2.7996,2.7996,2.7996,0,2.733,2.741,2.743,2.7488,2.7522,2.7528,2.7588,2.7622,2.7689,2.7713,2.7699,2.7817,2.7852,2.7941,2.7962,2.7987,2.8005,2.7982,2.8077,2.8086,2.8094,2.8125,2.8136,2.7998,2.7997,2.7997,2.7997,0,2.7434,2.7489,2.753,2.7596,2.7634,2.7692,2.7723,2.776,2.777,2.7795,2.7871,2.7914,2.7976,2.7998,2.8008,2.809,2.8081,2.8072,2.8046,2.8106,2.8136,2.8148,2.8,2.7999,2.7999,2.7998,0,0,2.7506,2.7584,2.7599,2.763,2.769,2.7734,2.7794,2.7855,2.7887,2.7934,2.7986,2.8065,2.8058,2.8094,2.8108,2.8149,2.8216,2.8135,2.8136,2.8149,2.8312,2.8319,2.8332,2.8217,2.8219,2.8221,2.8308,0,2.7581,2.7687,2.7709,2.7801,2.7854,2.7862,2.7915,2.7958,2.7984,2.8034,2.8063,2.8119,2.8104,2.8126,2.8167,2.8199,2.8249,2.8193,2.8267,2.8269,2.8254,2.8347,2.8354,2.8434,2.8319,2.8321,2.8323,0,2.7682,2.7732,2.783,2.7886,2.7909,2.7955,2.8014,2.8061,2.8112,2.8128,2.8169,2.818,2.8245,2.8216,2.8307,2.8268,2.83,2.8321,2.8325,2.8333,2.83,2.8359,2.8459,2.8471,2.8341,2.8339,2.8338,0,2.7727,2.7819,2.789,2.7916,2.7983,2.8016,2.8045,2.8094,2.813,2.8182,2.8206,2.8265,2.8297,2.8344,2.8371,2.8347,2.846,2.8433,2.8477,2.8476,2.85,2.8498,2.8608,2.8519,2.8519,2.8519,2.8519,0,2.7809,2.7868,2.7912,2.7955,2.8023,2.8049,2.8116,2.8145,2.8189,2.824,2.8251,2.8298,2.8331,2.8384,2.8406,2.8479,2.8493,2.8509,2.8514,2.8508,2.8507,2.853,2.8525,2.8522,2.8521,2.8521,2.852,0,2.787,2.7901,2.7979,2.8036,2.8052,2.81,2.815,2.8194,2.822,2.8285,2.8302,2.8344,2.8407,2.8439,2.8517,2.8532,2.8615,2.8616,2.8598,2.86,2.8642,2.8638,2.8771,2.8791,2.8688,2.8689,2.869,0,2.792,2.7967,2.8029,2.8064,2.8094,2.815,2.8187,2.8215,2.8254,2.8317,2.8353,2.8417,2.8469,2.857,2.8609,2.867,2.8674,2.8716,2.8683,2.8676,2.8676,2.8673,2.8679,2.8722,2.8723,2.8724,2.8724,0,2.8007,2.802,2.8073,2.8133,2.8177,2.8225,2.8272,2.8301,2.8336,2.838,2.8444,2.8485,2.8566,2.863,2.8695,2.8726,2.8733,2.8735,2.8748,2.8743,2.8731,2.874,2.8615,2.8732,2.8731,2.873,2.873,2.873,2.8065,2.8107,2.8159,2.8218,2.8257,2.8302,2.8346,2.8379,2.8434,2.8502,2.8515,2.8584,2.8637,2.8724,2.8758,2.8814,2.8805,2.8824,2.8829,2.8834,2.8836,2.8722,2.8826,2.8826,2.8825,2.8825,2.8825,0,2.8153,2.8187,2.8241,2.8308,2.8355,2.8357,2.841,2.845,2.8511,2.8559,2.8611,2.8687,2.875,2.8794,2.8859,2.8895,2.8899,2.8911,2.8909,2.8917,2.884,2.8822,2.8906,2.8906,2.8906,2.8906,2.8906,2.8906,2.8204,2.8277,2.8297,2.839,2.8424,2.8492,2.8522,2.8565,2.8604,2.8688,2.874,2.8769,2.8816,2.8885,2.8943,2.8955,2.8979,2.8991,2.9003,2.893,2.8922,2.8913,2.8897,2.8995,2.8995,2.9075,2.9075,2.9076]},{"header":{"parameterUnit":"m.s-1","parameterCategory":1,"la1":30.2991,"la2":30.254,"lo1":-89.0895,"lo2":-89.0444,"dy":0.0017,"dx":0.0017,"nx":28,"ny":28,"refTime":"2025-12-19T03:00:00:Z","depth":0,"parameterNumber":3,"parameterNumberName":"V-component_of_WINDS"},"data":[0,0,0,0,0,0,0,0,0,0,0,0,0,0,0,0,0,0,0,0,0,0,0,0,0,0,0,0,0,0,0,0,0,0,0,0,0,0,0,0,0,0,0,0,0,0,0,0,0,0,0,0,0,0,0,0,0,0,-8.2996,-8.2998,0,-8.3235,-8.3238,-8.324,-8.3231,-8.3227,-8.3224,-8.3221,-8.3463,-8.3472,-8.3482,0,0,0,0,0,0,0,0,0,0,0,0,0,-8.2528,-8.2537,-8.2995,-8.2998,-8.3001,-8.3235,-8.3238,-8.3241,-8.3231,-8.3227,-8.3223,-8.3219,-8.346,-8.3471,-8.3483,0,0,0,0,0,0,0,0,0,0,0,0,0,-8.2745,-8.2539,-8.2995,-8.3025,-8.303,-8.3234,-8.3238,-8.3242,-8.3232,-8.3227,-8.3222,-8.3217,-8.3456,-8.347,-8.3484,-8.3673,0,0,-8.3528,-8.3534,0,0,0,0,0,0,0,0,-8.2733,-8.2763,-8.3017,-8.3023,-8.3029,-8.3198,-8.3162,-8.3387,-8.3233,-8.3155,-8.3221,-8.3215,-8.3379,-8.3399,-8.3455,-8.3685,-8.3695,-8.3529,-8.3538,-8.3544,-8.3548,0,0,0,0,0,0,0,-8.2718,-8.2752,-8.309,-8.3021,-8.3028,-8.3026,-8.3051,-8.3204,-8.3292,-8.3162,-8.3162,-8.319,-8.3381,-8.3441,-8.346,-8.3699,-8.3529,-8.3542,-8.355,-8.3556,-8.4098,-8.4104,0,0,0,0,0,0,-8.2697,-8.274,-8.3082,-8.3097,-8.2866,-8.3038,-8.3066,-8.3149,-8.329,-8.3307,-8.3194,-8.3189,-8.3419,-8.3444,-8.3469,-8.3702,-8.3544,-8.3557,-8.3566,-8.4093,-8.41,-8.4106,0,0,0,0,0,0,-8.2687,-8.2728,-8.3073,-8.2919,-8.2962,-8.3052,-8.3144,-8.3156,-8.3216,-8.3315,-8.333,-8.324,-8.3416,-8.3449,-8.3623,-8.371,-8.3564,-8.3577,-8.4086,-8.4095,-8.4103,-8.4168,0,0,0,0,0,0,-8.2673,-8.2724,-8.2797,-8.292,-8.2971,-8.3224,-8.3149,-8.3164,-8.3242,-8.3237,-8.3362,-8.3378,-8.3415,-8.3602,-8.3638,-8.3727,-8.3588,-8.4078,-8.409,-8.41,-8.4158,-8.4177,-8.4194,0,0,0,0,0,-8.2657,-8.2804,-8.2801,-8.2842,-8.3064,-8.3229,-8.3258,-8.3298,-8.3248,-8.3323,-8.3387,-8.3374,-8.3695,-8.362,-8.366,-8.3755,-8.4073,-8.4086,-8.4099,-8.415,-8.4174,-8.4194,0,0,0,0,0,0,-8.2687,-8.2821,-8.2818,-8.301,-8.3109,-8.3227,-8.3322,-8.3321,-8.3434,-8.3425,-8.3469,-8.3497,-8.3673,-8.3731,-8.3646,-8.3947,-8.3877,-8.3899,-8.3903,-8.3926,-8.3943,-8.3926,-8.36,0,0,0,0,0,-8.2716,-8.284,-8.295,-8.3109,-8.3158,-8.3232,-8.3305,-8.3328,-8.3431,-8.3472,-8.3548,-8.3648,-8.3771,-8.3851,-8.397,-8.4166,-8.4194,-8.4252,-8.4269,-8.4284,-8.4302,-8.4412,-8.4439,-8.4149,-8.4149,-8.4148,0,0,-8.2778,-8.2866,-8.2941,-8.3117,-8.3196,-8.3323,-8.3266,-8.3402,-8.3497,-8.3492,-8.3663,-8.3722,-8.3836,-8.4023,-8.4109,-8.4077,-8.4389,-8.43,-8.4311,-8.4322,-8.4428,-8.4456,-8.448,-8.4157,-8.4156,-8.4154,0,0,-8.2954,-8.3033,-8.3176,-8.3256,-8.3377,-8.3425,-8.3459,-8.3579,-8.3619,-8.3791,-8.3791,-8.3903,-8.4115,-8.4197,-8.4266,-8.4477,-8.447,-8.4514,-8.4608,-8.4715,-8.4738,-8.4758,-8.4835,-8.4862,-8.4532,-8.4532,-8.4532,0,-8.3015,-8.3207,-8.3248,-8.3387,-8.3464,-8.3468,-8.3612,-8.3688,-8.3841,-8.3895,-8.3857,-8.4124,-8.4201,-8.4408,-8.446,-8.4515,-8.4556,-8.45,-8.4731,-8.4752,-8.4772,-8.4846,-8.4874,-8.4537,-8.4537,-8.4536,-8.4536,0,-8.3276,-8.341,-8.351,-8.366,-8.3749,-8.3889,-8.3952,-8.4037,-8.4053,-8.4105,-8.4281,-8.4374,-8.4513,-8.4564,-8.4579,-8.4774,-8.4751,-8.4722,-8.4653,-8.4804,-8.4874,-8.4902,-8.4544,-8.4542,-8.4541,-8.454,0,0,-8.3478,-8.3651,-8.3687,-8.3756,-8.389,-8.3994,-8.4135,-8.4273,-8.4346,-8.4451,-8.4571,-8.4751,-8.4726,-8.4805,-8.483,-8.4924,-8.5087,-8.4884,-8.4887,-8.4919,-8.531,-8.5331,-8.5363,-8.5083,-8.5089,-8.5093,-8.5301,0,-8.367,-8.3921,-8.3964,-8.4184,-8.4309,-8.4315,-8.4438,-8.4534,-8.4587,-8.47,-8.4757,-8.4885,-8.4842,-8.489,-8.4983,-8.5047,-8.5166,-8.5033,-8.5196,-8.5201,-8.5168,-8.54,-8.5423,-8.5614,-8.5328,-8.5333,-8.5336,0,-8.3927,-8.4042,-8.4275,-8.4395,-8.4449,-8.4559,-8.469,-8.4798,-8.4907,-8.4939,-8.5029,-8.5043,-8.519,-8.5115,-8.5318,-8.5227,-8.5296,-8.5338,-8.5347,-8.5364,-8.5278,-8.5425,-8.5676,-8.5705,-8.5379,-8.5376,-8.5373,0,-8.4052,-8.4265,-8.4433,-8.4492,-8.4635,-8.4713,-8.4776,-8.4881,-8.4962,-8.5075,-8.5129,-8.5257,-8.5328,-8.5427,-8.5477,-8.5417,-8.5678,-8.5606,-8.5709,-8.5708,-8.5764,-8.576,-8.6031,-8.5806,-8.5806,-8.5805,-8.5805,0,-8.4263,-8.4406,-8.4492,-8.4595,-8.4756,-8.4803,-8.4961,-8.5022,-8.5116,-8.5231,-8.5243,-8.5351,-8.5409,-8.5526,-8.5565,-8.5729,-8.576,-8.579,-8.5799,-8.579,-8.5787,-8.5837,-8.5825,-8.5813,-8.5811,-8.581,-8.5809,0,-8.443,-8.4493,-8.4677,-8.4799,-8.4833,-8.4947,-8.5051,-8.5152,-8.5205,-8.5351,-8.5388,-8.5472,-8.561,-8.5669,-8.5838,-8.5864,-8.6053,-8.6051,-8.6016,-8.602,-8.612,-8.611,-8.6434,-8.6479,-8.6223,-8.6226,-8.6227,0,-8.456,-8.4671,-8.4806,-8.4885,-8.4951,-8.5078,-8.5161,-8.5213,-8.5299,-8.5433,-8.5518,-8.5657,-8.5771,-8.5991,-8.6067,-8.6197,-8.6199,-8.6303,-8.6218,-8.6207,-8.6203,-8.6196,-8.6208,-8.6319,-8.6321,-8.6324,-8.6325,0,-8.4786,-8.4813,-8.4933,-8.5065,-8.5165,-8.5271,-8.5374,-8.5438,-8.5506,-8.5602,-8.5745,-8.5833,-8.6008,-8.6146,-8.6281,-8.6345,-8.6348,-8.6352,-8.6383,-8.6375,-8.6351,-8.6367,-8.606,-8.6344,-8.6342,-8.6341,-8.634,-8.6339,-8.494,-8.504,-8.5151,-8.5285,-8.5369,-8.5466,-8.5568,-8.5635,-8.5755,-8.5902,-8.5925,-8.6078,-8.6186,-8.6368,-8.6438,-8.6558,-8.6532,-8.6577,-8.6588,-8.6599,-8.6606,-8.6331,-8.6583,-8.6582,-8.6582,-8.6582,-8.6581,0,-8.5168,-8.524,-8.5363,-8.5509,-8.5615,-8.5609,-8.5724,-8.5813,-8.5948,-8.6049,-8.6162,-8.6327,-8.6461,-8.6548,-8.6684,-8.6764,-8.6768,-8.6798,-8.6793,-8.6808,-8.6621,-8.6581,-8.6792,-8.6792,-8.6792,-8.6792,-8.6792,-8.6792,-8.5299,-8.5467,-8.5508,-8.5719,-8.579,-8.5941,-8.6008,-8.6098,-8.6179,-8.6363,-8.6476,-8.6532,-8.6629,-8.6772,-8.6896,-8.6918,-8.6968,-8.7,-8.702,-8.6843,-8.6821,-8.68,-8.6763,-8.701,-8.701,-8.7198,-8.72,-8.7201]}]]